Retour au catalogue

ATLAS 5 CENTAUR DEB

LostHEO
NORAD 55853·DEBRIS·🇺🇸 United States

Lancé Oct 17, 2018 depuis Cape Canaveral Space Force Station

Loading…

Prochains Passages (prochaines 24 heures)

TLE

PériméSource: Space-Track

Époque: Nov 28, 2024, 15:14 UTC

1 55853U 18079HF  24333.63524644 -.00000080  00000-0  00000-0 0  9999
2 55853  12.4690  82.7867 4890633 227.0692  79.8616  1.80131086 14942

Suivez ATLAS 5 CENTAUR DEB en temps réel avec AllMySat

Download on the App Store